World > North America > United States > New York   Village of Valatie, New York

Hourly Valatie, NY Regional Weather

Feedback E-mail the Weather

Latest News

Valatie, NY Weather Maps

°F °C°F °C
Valatie Weather Map
UTC Time: 5/28/2022, 14:03
Your Time:

Valatie, NY Regional Weather

Expires:202205281400;;700790
ASUS41 KALY 281310
RWRALY

NEW YORK STATE HOURLY WEATHER ROUNDUP
NATIONAL WEATHER SERVICE ALBANY NY
900 AM EDT SAT MAY 28 2022

NOTE: "FAIR" INDICATES FEW OR NO CLOUDS BELOW 12,000 FEET WITH NO
SIGNIFICANT WEATHER AND/OR NO OBSTRUCTIONS TO VISIBILITY.


NYZ032-033-038>043-046>054-057>066-NYZ062>081-082-084-281400-
EAST

  
CITY           SKY/WX    TMP DP  RH WIND       PRES   REMARKS
ALBANY         PTSUNNY   69  64  84 S5        29.71R                  
GLENS FALLS    PTSUNNY   68  63  84 S7        29.69S                  
POUGHKEEPSIE   CLOUDY    68  66  93 VRB3      29.70S                  
NEWBURGH       CLOUDY    66  66 100 CALM      29.71F FOG              
MONTGOMERY     LGT RAIN  67  65  93 SW3       29.70S                  
WHITE PLAINS   LGT RAIN  68  64  87 VRB3      29.72R                  
ISLIP          CLOUDY    64  64 100 S6        29.73S FOG              
NEW YORK CITY  LGT RAIN  69  64  84 S6        29.71S                  
CENTRAL PARK   CLOUDY    67  65  93 CALM      29.74S                  
$$


SKY/WX - Weather  TMP - Temperature  DP - Dew Point  RH - Humidity
WIND - Wind Direction/Speed PRES - Barometric Pressure VSB - Visibility
WCI - Wind Chill Index E13G22 Wind - East Wind 13 mph/Gusts of 22 mph

Trending Headlines

Valatie Radar Loop



Valatie Quick Facts


National Two Day Weather Forecast


E-mail the Valatie Weather Forecast

Voice your opinion or tell us about page issues...